• In Sweden
  • List of Countries
  • For 7 days
  • Water Temperature
  • Satellite Maps
  • Weather Map
  • Weather Widgets
  • user-avatar
    Login

    Hourly Weather Fateykovo

    Today, 23 October, Tuesday

    Time Temperature Precipitation Wind Pressure Humidity
    00:00 +1°C° 0 mm 4 mps 740 mmHg 85%
    01:00 +1°C° 0 mm 4 mps 739 mmHg 87%
    02:00 +2°C° 0 mm 3 mps 738 mmHg 87%
    03:00 +2°C° 0.1 mm 3 mps 738 mmHg 88%
    04:00 +1°C° 0.1 mm 4 mps 737 mmHg 90%
    05:00 +1°C° 0.1 mm 4 mps 737 mmHg 91%
    06:00 +3°C° 0.1 mm 3 mps 736 mmHg 91%
    07:00 +3°C° 0.1 mm 3 mps 736 mmHg 91%
    08:00 +3°C° 0 mm 3 mps 736 mmHg 90%
    09:00 +4°C° 0 mm 3 mps 735 mmHg 88%
    10:00 +5°C° 0 mm 3 mps 735 mmHg 85%
    11:00 +5°C° 0 mm 3 mps 735 mmHg 83%
    12:00 +5°C° 0 mm 3 mps 734 mmHg 80%
    13:00 +5°C° 0 mm 3 mps 733 mmHg 77%
    14:00 +5°C° 0 mm 3 mps 733 mmHg 75%
    15:00 +5°C° 0 mm 3 mps 732 mmHg 77%
    16:00 +5°C° 0 mm 2 mps 732 mmHg 79%
    17:00 +5°C° 0 mm 2 mps 731 mmHg 81%
    18:00 +5°C° 0 mm 2 mps 730 mmHg 83%
    19:00 +3°C° 0 mm 3 mps 730 mmHg 85%
    20:00 +3°C° 0 mm 3 mps 729 mmHg 87%
    21:00 +3°C° 0.1 mm 3 mps 728 mmHg 86%
    22:00 +3°C° 0.1 mm 3 mps 727 mmHg 85%
    23:00 +3°C° 0.1 mm 3 mps 726 mmHg 84%

    Tomorrow, 24 October, Wednesday

    Time Temperature Precipitation Wind Pressure Humidity
    00:00 +3°C° 0.3 mm 4 mps 726 mmHg 84%
    01:00 +3°C° 0.3 mm 4 mps 725 mmHg 84%
    02:00 +3°C° 0.3 mm 4 mps 724 mmHg 83%
    03:00 +3°C° 0.2 mm 4 mps 723 mmHg 84%
    04:00 +3°C° 0.2 mm 4 mps 722 mmHg 84%
    05:00 +3°C° 0.2 mm 4 mps 721 mmHg 85%
    06:00 +2°C° 0.2 mm 5 mps 721 mmHg 85%
    07:00 +2°C° 0.2 mm 5 mps 720 mmHg 85%
    08:00 +2°C° 0.2 mm 5 mps 720 mmHg 85%
    09:00 +4°C° 0.3 mm 4 mps 719 mmHg 84%
    10:00 +4°C° 0.3 mm 4 mps 719 mmHg 84%
    11:00 +4°C° 0.3 mm 4 mps 719 mmHg 84%
    12:00 +5°C° 0.1 mm 4 mps 719 mmHg 85%
    13:00 +5°C° 0.1 mm 3 mps 718 mmHg 86%
    14:00 +5°C° 0.1 mm 3 mps 718 mmHg 87%
    15:00 +5°C° 0.5 mm 3 mps 718 mmHg 89%
    16:00 +5°C° 0.5 mm 3 mps 718 mmHg 91%
    17:00 +4°C° 0.5 mm 3 mps 718 mmHg 93%
    18:00 +4°C° 1.4 mm 3 mps 718 mmHg 94%
    19:00 +4°C° 1.4 mm 3 mps 718 mmHg 94%
    20:00 +4°C° 1.4 mm 3 mps 717 mmHg 94%
    21:00 +4°C° 0.9 mm 3 mps 717 mmHg 94%
    22:00 +4°C° 0.9 mm 3 mps 717 mmHg 94%
    23:00 +4°C° 0.9 mm 3 mps 717 mmHg 93%

    Day after tomorrow, 25 October, Thursday

    Time Temperature Precipitation Wind Pressure Humidity
    00:00 +4°C° 0.5 mm 3 mps 717 mmHg 93%
    01:00 +4°C° 0.5 mm 3 mps 717 mmHg 93%
    02:00 +4°C° 0.5 mm 3 mps 717 mmHg 93%
    03:00 +4°C° 0.5 mm 3 mps 717 mmHg 93%
    04:00 +3°C° 0.5 mm 3 mps 717 mmHg 93%
    05:00 +3°C° 0.5 mm 3 mps 717 mmHg 93%
    06:00 +3°C° 0.6 mm 4 mps 718 mmHg 91%
    07:00 +3°C° 0.6 mm 4 mps 718 mmHg 90%
    08:00 +3°C° 0.6 mm 4 mps 718 mmHg 89%
    09:00 +2°C° 0.6 mm 5 mps 718 mmHg 87%
    10:00 +2°C° 0.6 mm 6 mps 719 mmHg 84%
    11:00 +2°C° 0.6 mm 6 mps 719 mmHg 82%
    12:00 +2°C° 0.2 mm 6 mps 720 mmHg 80%
    13:00 +2°C° 0.2 mm 6 mps 720 mmHg 78%
    14:00 +2°C° 0.2 mm 6 mps 720 mmHg 76%
    15:00 +2°C° 0 mm 6 mps 721 mmHg 78%
    16:00 +1°C° 0 mm 5 mps 722 mmHg 79%
    17:00 +1°C° 0 mm 5 mps 722 mmHg 80%
    18:00 +1°C° 0.1 mm 5 mps 723 mmHg 80%
    19:00 +1°C° 0.1 mm 5 mps 723 mmHg 80%
    20:00 +1°C° 0.1 mm 5 mps 723 mmHg 79%
    21:00 0°C° 0 mm 5 mps 724 mmHg 81%
    22:00 0°C° 0 mm 5 mps 724 mmHg 82%
    23:00 0°C° 0 mm 5 mps 724 mmHg 83%

    26 October, Friday

    Time Temperature Precipitation Wind Pressure Humidity
    00:00 0°C° 0 mm 5 mps 724 mmHg 84%
    01:00 -1°C° 0 mm 4 mps 725 mmHg 85%
    02:00 -1°C° 0 mm 4 mps 725 mmHg 87%
    03:00 -1°C° 0 mm 4 mps 725 mmHg 88%
    04:00 -2°C° 0 mm 4 mps 725 mmHg 89%
    05:00 -2°C° 0 mm 4 mps 726 mmHg 90%
    06:00 -2°C° 0 mm 4 mps 726 mmHg 89%
    07:00 -1°C° 0 mm 4 mps 727 mmHg 87%
    08:00 -1°C° 0 mm 5 mps 727 mmHg 86%
    09:00 0°C° 0 mm 5 mps 728 mmHg 84%
    10:00 0°C° 0 mm 5 mps 728 mmHg 82%
    11:00 +1°C° 0 mm 5 mps 728 mmHg 80%
    12:00 +1°C° 0.1 mm 5 mps 728 mmHg 79%
    13:00 +1°C° 0.1 mm 5 mps 729 mmHg 78%
    14:00 +1°C° 0.1 mm 5 mps 729 mmHg 77%
    15:00 +1°C° 0 mm 4 mps 729 mmHg 77%
    16:00 +1°C° 0 mm 4 mps 730 mmHg 78%
    17:00 +1°C° 0 mm 4 mps 730 mmHg 78%
    18:00 +1°C° 0 mm 4 mps 731 mmHg 78%
    19:00 +1°C° 0 mm 4 mps 731 mmHg 79%
    20:00 +1°C° 0 mm 4 mps 731 mmHg 79%
    21:00 0°C° 0 mm 4 mps 732 mmHg 81%
    22:00 0°C° 0 mm 4 mps 732 mmHg 84%
    23:00 -1°C° 0 mm 4 mps 732 mmHg 86%

    27 October, Saturday

    Time Temperature Precipitation Wind Pressure Humidity
    00:00 -1°C° 0 mm 4 mps 732 mmHg 88%
    01:00 0°C° 0 mm 3 mps 733 mmHg 91%
    02:00 -1°C° 0 mm 3 mps 733 mmHg 93%
    03:00 -1°C° 0 mm 3 mps 733 mmHg 93%
    04:00 -1°C° 0 mm 3 mps 732 mmHg 94%
    05:00 -2°C° 0 mm 4 mps 732 mmHg 94%
    06:00 -1°C° 0.2 mm 4 mps 732 mmHg 92%
    07:00 -1°C° 0.2 mm 4 mps 731 mmHg 90%
    08:00 0°C° 0.2 mm 5 mps 731 mmHg 88%
    09:00 +1°C° 0.8 mm 5 mps 730 mmHg 88%
    10:00 +2°C° 0.8 mm 6 mps 729 mmHg 88%
    11:00 +2°C° 0.8 mm 6 mps 728 mmHg 88%
    12:00 +3°C° 0.2 mm 6 mps 728 mmHg 87%
    13:00 +4°C° 0.2 mm 6 mps 727 mmHg 85%
    14:00 +5°C° 0.2 mm 6 mps 727 mmHg 84%
    15:00 +5°C° 0.1 mm 5 mps 727 mmHg 83%
    16:00 +3°C° 0.1 mm 5 mps 728 mmHg 82%
    17:00 +2°C° 0.1 mm 5 mps 728 mmHg 81%
    18:00 +2°C° 0 mm 5 mps 728 mmHg 81%
    19:00 +2°C° 0 mm 5 mps 729 mmHg 81%
    20:00 +2°C° 0 mm 5 mps 729 mmHg 80%
    21:00 +2°C° 0.2 mm 5 mps 729 mmHg 81%
    22:00 +2°C° 0.2 mm 5 mps 729 mmHg 81%
    23:00 +2°C° 0.2 mm 6 mps 729 mmHg 81%

    28 October, Sunday

    Time Temperature Precipitation Wind Pressure Humidity
    00:00 +2°C° 0.1 mm 6 mps 730 mmHg 82%
    01:00 +2°C° 0.1 mm 6 mps 731 mmHg 83%
    02:00 +2°C° 0.1 mm 6 mps 731 mmHg 84%
    03:00 +2°C° 0 mm 6 mps 732 mmHg 84%
    04:00 +2°C° 0 mm 5 mps 733 mmHg 84%
    05:00 +2°C° 0 mm 5 mps 734 mmHg 85%
    06:00 +2°C° 0 mm 5 mps 735 mmHg 84%
    07:00 +2°C° 0 mm 5 mps 737 mmHg 83%
    08:00 +2°C° 0 mm 5 mps 738 mmHg 82%
    09:00 +2°C° 0 mm 5 mps 739 mmHg 81%
    10:00 +2°C° 0 mm 5 mps 740 mmHg 80%
    11:00 +2°C° 0 mm 5 mps 740 mmHg 78%
    12:00 +2°C° 0.1 mm 5 mps 741 mmHg 77%
    13:00 +3°C° 0.1 mm 4 mps 742 mmHg 76%
    14:00 +3°C° 0.1 mm 4 mps 743 mmHg 75%
    15:00 +2°C° 0 mm 3 mps 743 mmHg 78%
    16:00 +2°C° 0 mm 3 mps 744 mmHg 82%
    17:00 +2°C° 0 mm 2 mps 744 mmHg 85%
    18:00 +2°C° 0 mm 2 mps 745 mmHg 87%
    19:00 +1°C° 0 mm 2 mps 745 mmHg 89%
    20:00 +1°C° 0 mm 2 mps 746 mmHg 90%
    21:00 +2°C° 0 mm 1 mps 746 mmHg 90%
    22:00 +2°C° 0 mm 1 mps 746 mmHg 89%
    23:00 +2°C° 0 mm 1 mps 747 mmHg 89%

    29 October, Monday

    Time Temperature Precipitation Wind Pressure Humidity
    00:00 +2°C° 0 mm 1 mps 747 mmHg 88%
    01:00 +2°C° 0 mm 1 mps 747 mmHg 88%
    02:00 +2°C° 0 mm 1 mps 747 mmHg 87%
    03:00 +2°C° 0.1 mm 1 mps 747 mmHg 87%
    04:00 +2°C° 0.1 mm 1 mps 747 mmHg 87%
    05:00 +2°C° 0.1 mm 1 mps 747 mmHg 88%
    06:00 +2°C° 0.2 mm 1 mps 747 mmHg 88%
    07:00 +2°C° 0.2 mm 2 mps 747 mmHg 88%
    08:00 +2°C° 0.2 mm 2 mps 747 mmHg 88%
    09:00 +2°C° 0.6 mm 2 mps 747 mmHg 89%
    10:00 +1°C° 0.6 mm 3 mps 747 mmHg 90%
    11:00 +1°C° 0.6 mm 3 mps 747 mmHg 91%
    12:00 0°C° 0.8 mm 4 mps 747 mmHg 91%
    13:00 0°C° 0.8 mm 4 mps 746 mmHg 91%
    14:00 0°C° 0.8 mm 5 mps 746 mmHg 92%
    15:00 0°C° 0.6 mm 5 mps 746 mmHg 92%
    16:00 0°C° 0.6 mm 5 mps 745 mmHg 93%
    17:00 0°C° 0.6 mm 5 mps 745 mmHg 93%
    18:00 0°C° 0.2 mm 5 mps 745 mmHg 94%
    19:00 0°C° 0.2 mm 5 mps 744 mmHg 94%
    20:00 0°C° 0.2 mm 4 mps 744 mmHg 95%
    21:00 0°C° 0.1 mm 4 mps 744 mmHg 96%
    22:00 0°C° 0.1 mm 4 mps 743 mmHg 96%
    23:00 +2°C° 0.1 mm 3 mps 743 mmHg 97%
    Show more